GW4729 Weather Reports


time (UTC)temp
C
wind
direction
speed
KPH
gust
KPH
rain 1hr
cm
rain 24hr
cm
rain mn
cm
humidity
%
barometer
mb
20260504081506 6 308 0.0 0.0 0.00 0.00 0.00 82 1016.3
20260504081001 6 308 0.0 0.0 0.00 0.00 0.00 83 1016.4
20260504080458 6 308 0.0 0.0 0.00 0.00 0.00 83 1016.4
20260504050311 3 308 0.0 0.0 0.00 0.00 0.00 85 1017.0
20260504045808 3 308 0.0 0.0 0.00 0.00 0.00 86 1017.2
20260504045308 3 308 0.0 0.0 0.00 0.00 0.00 84 1017.5
20260504044806 4 308 0.0 0.0 0.00 0.00 0.00 84 1017.5
20260504044303 4 308 0.0 0.0 0.00 0.00 0.00 82 1017.1
20260504043800 4 308 0.0 0.0 0.00 0.00 0.00 81 1017.2
20260504043257 3 308 0.0 0.0 0.00 0.00 0.00 83 1017.2
20260504042755 3 308 0.0 0.0 0.00 0.00 0.00 84 1017.2
20260504042251 3 308 0.0 0.0 0.00 0.00 0.00 83 1017.4
20260504041747 3 308 0.0 0.0 0.00 0.00 0.00 84 1017.1
20260504041243 3 308 0.0 1.6 0.00 0.00 0.00 86 1017.2
20260504040739 3 309 0.0 0.0 0.00 0.00 0.00 84 1017.2
20260504040237 3 309 0.0 0.0 0.00 0.00 0.00 82 1017.0
20260504035733 3 309 0.0 0.0 0.00 0.00 0.00 81 1017.2
20260504035230 3 309 0.0 0.0 0.00 0.00 0.00 84 1017.0
20260504034728 4 309 0.0 0.0 0.00 0.00 0.00 81 1016.8
20260504034225 4 309 0.0 0.0 0.00 0.00 0.00 78 1016.9
20260504033723 5 309 0.0 0.0 0.00 0.00 0.00 79 1016.9
20260504033220 5 309 0.0 0.0 0.00 0.00 0.00 76 1017.0
20260504032717 5 309 0.0 0.0 0.00 0.00 0.00 76 1016.9
20260504032214 5 309 0.0 0.0 0.00 0.00 0.00 76 1016.8
20260504031710 5 309 0.0 0.0 0.00 0.00 0.00 75 1016.7
20260504031208 5 309 0.0 0.0 0.00 0.00 0.00 76 1016.9
20260504030703 5 309 0.0 0.0 0.00 0.00 0.00 74 1016.9
20260504030201 5 309 0.0 0.0 0.00 0.00 0.00 75 1016.8
20260504025657 5 309 0.0 0.0 0.00 0.00 0.00 76 1016.7
20260504025154 5 309 0.0 0.0 0.00 0.00 0.00 77 1016.8
20260504024651 5 309 0.0 0.0 0.00 0.00 0.00 73 1016.8
20260504024148 5 309 0.0 0.0 0.00 0.00 0.00 72 1016.9
20260504023644 5 309 0.0 0.0 0.00 0.00 0.00 71 1016.6
20260504023140 5 309 0.0 0.0 0.00 0.00 0.00 70 1016.7
20260504022637 5 309 0.0 0.0 0.00 0.00 0.00 72 1016.6
20260504022133 6 309 0.0 0.0 0.00 0.00 0.00 75 1016.5
20260504021631 6 309 0.0 0.0 0.00 0.00 0.00 67 1016.6
20260504021127 6 309 0.0 0.0 0.00 0.00 0.00 67 1016.3
20260504020625 7 309 0.0 0.0 0.00 0.00 0.00 69 1016.2
20260504020120 7 309 0.0 0.0 0.00 0.00 0.00 57 1016.4
20260504015617 7 309 0.0 1.6 0.00 0.00 0.00 66 1016.1
20260504015113 7 309 0.0 0.0 0.00 0.00 0.00 62 1016.1
20260504014609 7 309 0.0 0.0 0.00 0.00 0.00 63 1016.2
20260504014107 7 309 0.0 0.0 0.00 0.00 0.00 59 1016.3
20260504013604 7 309 0.0 0.0 0.00 0.00 0.00 60 1016.2
20260504013101 7 309 0.0 0.0 0.00 0.00 0.00 63 1016.1
20260504012558 8 309 0.0 0.0 0.00 0.00 0.00 60 1016.2
20260504012056 9 309 0.0 0.0 0.00 0.00 0.00 53 1016.1
20260504011553 10 309 0.0 0.0 0.00 0.00 0.00 47 1016.0
20260504011049 10 309 0.0 0.0 0.00 0.00 0.00 46 1016.0
20260504010544 10 309 0.0 0.0 0.00 0.00 0.00 46 1015.9
20260504010041 10 309 0.0 0.0 0.00 0.00 0.00 48 1016.0
20260504005538 11 309 0.0 0.0 0.00 0.00 0.00 48 1016.0
20260504005035 11 309 0.0 0.0 0.00 0.00 0.00 43 1015.8
20260504004533 11 309 0.0 0.0 0.00 0.00 0.00 44 1015.8
20260504004030 11 309 0.0 0.0 0.00 0.00 0.00 46 1016.0
20260504003526 11 309 0.0 0.0 0.00 0.00 0.00 47 1015.9
20260504003023 11 309 0.0 1.6 0.00 0.00 0.00 43 1015.8
20260504002520 12 263 0.0 0.0 0.00 0.00 0.00 41 1015.9
20260504002017 12 263 0.0 1.6 0.00 0.00 0.00 39 1015.7
20260504001515 13 263 0.0 0.0 0.00 0.00 0.00 41 1015.8
20260504001011 13 263 0.0 0.0 0.00 0.00 0.00 37 1016.0
20260504000508 13 263 0.0 0.0 0.00 0.00 0.00 37 1015.9
20260504000005 13 263 0.0 0.0 0.00 0.00 0.00 36 1015.8
20260503235503 14 263 1.6 1.6 0.00 0.00 0.00 36 1015.7
20260503235000 14 263 1.6 1.6 0.00 0.00 0.00 37 1015.5
20260503234457 15 266 1.6 3.2 0.00 0.00 0.00 35 1015.6
20260503233956 15 267 1.6 3.2 0.00 0.00 0.00 34 1015.7
20260503233452 16 267 3.2 3.2 0.00 0.00 0.00 32 1015.5
20260503232948 16 278 4.8 4.8 0.00 0.00 0.00 31 1015.6
20260503232445 16 262 4.8 6.4 0.00 0.00 0.00 31 1015.4
20260503231943 16 286 3.2 6.4 0.00 0.00 0.00 30 1015.5
20260503231440 16 279 3.2 4.8 0.00 0.00 0.00 32 1015.4
20260503230937 16 265 3.2 9.7 0.00 0.00 0.00 33 1015.4
20260503230433 16 276 6.4 9.7 0.00 0.00 0.00 31 1015.3
20260503225931 16 263 4.8 6.4 0.00 0.00 0.00 31 1015.5
20260503225427 16 290 12.9 16.1 0.00 0.00 0.00 29 1015.5
20260503224923 16 263 4.8 14.5 0.00 0.00 0.00 30 1015.3
20260503224420 16 267 6.4 12.9 0.00 0.00 0.00 31 1015.2
20260503223918 16 283 6.4 6.4 0.00 0.00 0.00 30 1015.0
20260503223416 16 270 3.2 6.4 0.00 0.00 0.00 31 1015.5
20260503222916 16 255 4.8 11.3 0.00 0.00 0.00 32 1015.2
20260503222415 16 267 6.4 6.4 0.00 0.00 0.00 31 1015.3
20260503221913 16 262 6.4 14.5 0.00 0.00 0.00 30 1015.3
20260503221411 16 284 11.3 16.1 0.00 0.00 0.00 29 1015.3
20260503220907 16 252 9.7 11.3 0.00 0.00 0.00 31 1015.4
20260503220404 16 292 8.0 11.3 0.00 0.00 0.00 32 1015.5
20260503215900 16 256 6.4 9.7 0.00 0.00 0.00 32 1015.6
20260503215358 16 271 6.4 14.5 0.00 0.00 0.00 31 1015.6
20260503214855 16 268 3.2 4.8 0.00 0.00 0.00 32 1015.4
20260503214352 16 276 6.4 14.5 0.00 0.00 0.00 31 1015.6
20260503213850 16 259 3.2 9.7 0.00 0.00 0.00 33 1015.5
20260503213348 16 274 9.7 11.3 0.00 0.00 0.00 30 1015.5
20260503212844 16 247 11.3 14.5 0.00 0.00 0.00 31 1015.5
20260503212342 16 262 6.4 12.9 0.00 0.00 0.00 30 1015.6
20260503211839 16 249 6.4 12.9 0.00 0.00 0.00 32 1015.5
20260503211336 16 257 4.8 14.5 0.00 0.00 0.00 31 1015.3
20260503210831 16 282 4.8 11.3 0.00 0.00 0.00 31 1015.6
20260503210328 16 276 8.0 12.9 0.00 0.00 0.00 31 1015.6
20260503205823 16 265 9.7 20.9 0.00 0.00 0.00 32 1015.5
20260503205320 16 274 14.5 16.1 0.00 0.00 0.00 31 1015.4
20260503204817 16 322 8.0 16.1 0.00 0.00 0.00 30 1015.5
20260503204314 16 289 3.2 11.3 0.00 0.00 0.00 32 1015.4
20260503203811 16 288 9.7 12.9 0.00 0.00 0.00 32 1015.7
20260503203309 16 249 9.7 14.5 0.00 0.00 0.00 30 1015.6
20260503202805 16 260 11.3 14.5 0.00 0.00 0.00 31 1015.5
20260503202304 16 315 8.0 14.5 0.00 0.00 0.00 31 1015.6
20260503201801 16 340 12.9 20.9 0.00 0.00 0.00 35 1015.8
20260503201258 16 258 6.4 9.7 0.00 0.00 0.00 34 1015.7
20260503200755 16 277 14.5 16.1 0.00 0.00 0.00 30 1015.8
20260503200251 16 271 3.2 4.8 0.00 0.00 0.00 32 1015.8
20260503195748 16 275 3.2 4.8 0.00 0.00 0.00 33 1016.0
20260503195245 16 328 8.0 9.7 0.00 0.00 0.00 34 1016.0
20260503194743 15 313 1.6 3.2 0.00 0.00 0.00 38 1016.2
20260503194238 16 233 8.0 12.9 0.00 0.00 0.00 31 1016.2
20260503193735 16 247 8.0 14.5 0.00 0.00 0.00 32 1016.2
20260503193231 16 333 3.2 6.4 0.00 0.00 0.00 35 1016.4
20260503192727 16 287 3.2 4.8 0.00 0.00 0.00 34 1016.2
20260503192222 16 269 4.8 6.4 0.00 0.00 0.00 31 1016.5
20260503191719 16 265 4.8 11.3 0.00 0.00 0.00 34 1016.5
20260503191216 16 272 3.2 12.9 0.00 0.00 0.00 32 1016.7
20260503190713 16 252 3.2 9.7 0.00 0.00 0.00 29 1016.7
20260503190209 16 300 9.7 16.1 0.00 0.00 0.00 29 1016.8
20260503185707 16 258 8.0 11.3 0.00 0.00 0.00 31 1016.8
20260503185202 15 261 3.2 11.3 0.00 0.00 0.00 33 1017.0
20260503184657 15 261 3.2 16.1 0.00 0.00 0.00 35 1017.1
20260503184154 15 269 8.0 11.3 0.00 0.00 0.00 31 1017.1
20260503183649 15 278 9.7 11.3 0.00 0.00 0.00 32 1017.2
20260503183147 15 269 9.7 16.1 0.00 0.00 0.00 32 1017.5
20260503182645 15 317 9.7 11.3 0.00 0.00 0.00 33 1017.2
20260503182144 15 273 4.8 11.3 0.00 0.00 0.00 37 1017.4
20260503181640 16 288 6.4 9.7 0.00 0.00 0.00 31 1017.1
20260503181137 15 289 6.4 12.9 0.00 0.00 0.00 38 1017.2
20260503180634 14 272 3.2 6.4 0.00 0.00 0.00 36 1017.5
20260503180132 14 298 4.8 20.9 0.00 0.00 0.00 38 1017.5
20260503175629 15 256 6.4 12.9 0.00 0.00 0.00 33 1017.4
20260503175125 14 275 9.7 16.1 0.00 0.00 0.00 35 1017.6
20260503174622 13 283 12.9 17.7 0.00 0.00 0.00 35 1017.8
20260503174120 13 318 9.7 17.7 0.00 0.00 0.00 37 1017.7
20260503173614 13 257 14.5 16.1 0.00 0.00 0.00 37 1017.6
20260503173111 14 289 3.2 12.9 0.00 0.00 0.00 43 1017.8
20260503172608 13 271 0.0 9.7 0.00 0.00 0.00 42 1017.8
20260503172106 13 291 9.7 16.1 0.00 0.00 0.00 37 1018.0
20260503171601 14 297 12.9 16.1 0.00 0.00 0.00 36 1018.0
20260503171059 13 272 4.8 11.3 0.00 0.00 0.00 37 1017.9
20260503170555 13 272 4.8 6.4 0.00 0.00 0.00 37 1017.8
20260503150948 11 311 3.2 3.2 0.00 0.00 0.00 52 1018.9
20260503150444 11 303 8.0 16.1 0.00 0.00 0.00 46 1019.0
20260503131337 8 294 3.2 11.3 0.00 0.00 0.00 56 1019.4
20260503130835 8 313 4.8 9.7 0.00 0.00 0.00 59 1019.4
20260503130332 8 330 3.2 4.8 0.00 0.00 0.00 59 1019.5
20260503110726 1 294 0.0 0.0 0.00 0.00 0.00 93 1018.6
20260503110223 1 294 0.0 0.0 0.00 0.00 0.00 93 1018.4
20260503100149 1 294 0.0 0.0 0.00 0.00 0.00 91 1017.7